Regional Weather Roundup
Issued by NWS

Home | Current Version | Previous Version | Graphics & Text | Print | Product List | Glossary On
Versions: 1 2 3 4 5 6 7 8 9 10 11 12 13 14 15 16 17 18 19 20 21 22 23 24 25 26 27 28 29 30 31 32 33 34 35 36 37 38 39 40 41 42 43 44 45 46 47 48 49 50
000
ASUS45 KABQ 012101
RWRNM
NEW MEXICO REGIONAL WEATHER ROUNDUP
NATIONAL WEATHER SERVICE ALBUQUERQUE NM
200 PM MST THU DEC 01 2016

NOTE: "FAIR" MEANS FEW OR NO CLOUDS BELOW 12,000 FEET AGL WITH NO
       SIGNIFICANT WEATHER OR OBSTRUCTIONS TO VISION.

      THIS PRODUCT IS RELEASED AS TWO VERSIONS.  ONE VERSION NEAR
      THE TOP OF THE HOUR CONTAINING PRELIMINARY DATA FROM ALBUQUERQUE
      AND OTHER STATIONS.  A FINAL VERSION WITH ADDITIONAL DATA IS
      ISSUED ABOUT 10 MINUTES AFTER THE HOUR.

NMZ501-503-504-510>518-012200-
NORTHWEST PLATEAU/NORTHCENTRAL MOUNTAINS

CITY           SKY/WX    TMP DP  RH WIND       PRES   REMARKS
FARMINGTON     FAIR      38  15  39 CALM      29.95F
LOS ALAMOS     FAIR      35   9  34 S5        29.93F WCI  31
SANTA FE       FAIR      40   8  26 W10       29.93F WCI  33
TAOS           FAIR      34   9  35 SW5       29.93F WCI  30
ANGEL FIRE     FAIR      31   9  38 W8        29.90S WCI  24

$$
NMZ402-403-502-505>509-012200-
WESTCENTRAL MOUNTAINS/SOUTHWEST MOUNTAINS

CITY           SKY/WX    TMP DP  RH WIND       PRES   REMARKS
GALLUP         FAIR      38  14  37 VRB3      29.94F
GRANTS         FAIR      39  11  32 CALM      29.95F

$$
NMZ407-409-411-412-012200-
SOUTHERN DESERTS

CITY           SKY/WX    TMP DP  RH WIND       PRES   REMARKS
DEMING         FAIR      56  25  30 VRB5      29.92F
LAS CRUCES     FAIR      55  21  26 W3        29.94F
HOLLOMAN AFB   FAIR      53  18  25 CALM      29.96F
T OR C         FAIR      49  12  22 VRB5      29.92F

$$
NMZ519>523-012200-
CENTRAL VALLEYS/CENTRAL HIGHLANDS

CITY           SKY/WX    TMP DP  RH WIND       PRES   REMARKS
ALBUQUERQUE    PTSUNNY   41  12  30 SW5       29.96F
DOUBLE EAGLE   PTSUNNY   41  12  30 S6        29.96F
MORIARTY ARPT  FAIR      45   6  20 W8        29.94S
CLINES CORNERS FAIR      41   9  26 W16       29.92F
BELEN          FAIR      43  10  25 CALM      29.95F
SOCORRO        FAIR      47  10  23 CALM      29.94F

$$
NMZ524>526-539-540-012200-
SOUTHCENTRAL MOUNTAINS

CITY           SKY/WX    TMP DP  RH WIND       PRES   REMARKS
RUIDOSO        FAIR      48  10  21 NW6       29.94F

$$
NMZ527>531-012200-
NORTHEAST HIGHLANDS/NORTHEAST PLAINS

CITY           SKY/WX    TMP DP  RH WIND       PRES   REMARKS
LAS VEGAS      FAIR      43   3  19 S13       29.86F
RATON          FAIR      39  11  31 SW8       29.87F WCI  33
CLAYTON        NOT AVBL

$$
NMZ532>537-012200-
EASTCENTRAL PLAINS

CITY           SKY/WX    TMP DP  RH WIND       PRES   REMARKS
TUCUMCARI      FAIR      48  13  24 VRB3      29.91F
CANNON AFB     FAIR      53  10  18 W10       29.90F
CLOVIS AIRPORT FAIR      52  12  20 W13       29.90F

$$
NMZ028-029-538-012200-
SOUTHEAST PLAINS

CITY           SKY/WX    TMP DP  RH WIND       PRES   REMARKS
ROSWELL        FAIR      56  13  18 VRB5      29.89F
ARTESIA        FAIR      55  18  22 CALM      29.89F
CARLSBAD       FAIR      59  20  22 E5        29.88F
HOBBS          SUNNY     59  18  20 S6        29.91F


$$




USA.gov is the U.S. government's official web portal to all federal, state and local government web resources and services.